Wind_Speed
19 18 18 21 19 16 15 15 16 16 16 17 18 19 20 21 23 24 24 22 21 21 19 15 13 12 11 12 12 14 16 15 18 21 21 19 17 17 18 18 18 16 17
19 19 17 16 18 17 14 14 16 16 16 17 18 21 22 24 25 20 18 16 13 10 7 5 5 7 7 7 9 13 16 16 17 20 20 13 20 4 10 12 13 16 17
19 17 16 17 17 14 13 14 15 15 16 17 19 20 21 21 17 14 10 7 6 5 4 4 4 5 7 10 10 13 16 20 19 17 11 8 6 29 16 20 19 21 20
15 15 16 16 14 11 14 15 14 14 16 18 19 20 21 17 15 13 8 5 5 4 3 3 5 6 8 10 13 15 16 16 18 18 14 13 17 15 15 24 22 18 14
4 6 10 10 10 11 13 14 13 15 17 18 18 19 18 15 14 12 7 1 3 4 5 6 6 7 8 10 13 13 13 13 14 16 17 16 15 15 15 22 23 21 17
2 4 5 8 9 12 14 13 15 16 17 18 18 19 15 13 12 12 8 7 4 4 8 8 8 10 10 10 12 12 11 10 12 13 13 13 15 17 18 21 23 24 19
3 5 7 9 12 13 13 15 17 17 18 19 18 17 14 12 11 11 8 8 9 6 7 8 9 10 11 10 12 9 10 10 10 12 12 12 13 14 15 16 20 19 19
5 7 9 12 11 11 13 16 17 18 18 18 17 16 14 11 11 12 12 11 12 11 11 11 11 12 10 12 11 9 9 9 9 10 11 13 14 13 13 14 14 17 18
11 13 12 12 8 9 16 18 18 18 18 18 17 16 14 13 12 13 13 14 13 13 13 12 13 12 12 11 11 11 8 9 9 10 10 11 12 11 12 11 11 11 13
12 14 15 15 15 19 22 22 22 20 17 17 16 16 15 14 14 13 13 14 14 13 14 14 15 14 14 12 12 10 9 9 10 11 10 11 11 10 10 10 9 8 11
18 17 18 19 21 24 26 26 23 23 19 17 17 17 16 15 15 14 13 14 13 12 11 12 12 13 13 12 12 11 11 10 11 11 11 13 13 12 9 9 9 9 9
21 18 21 21 21 24 24 23 23 23 17 18 19 19 18 16 16 15 14 14 12 11 10 10 11 11 11 12 13 12 12 12 10 10 12 13 14 14 14 13 11 12 12
22 22 19 14 17 21 20 18 18 17 18 21 22 21 20 19 17 17 15 15 14 12 11 10 11 11 11 11 12 13 14 11 9 9 11 11 12 13 14 16 16 16 16
19 17 14 17 17 17 18 17 18 19 21 23 23 22 20 19 19 18 17 16 16 15 13 12 12 12 12 12 12 13 14 11 9 9 10 11 11 13 13 14 13 14 15
18 18 18 18 18 18 18 18 19 19 20 20 21 22 20 20 21 20 19 19 18 17 16 14 14 14 14 14 13 13 13 13 12 10 11 12 13 13 12 12 11 10 10
18 22 24 24 24 23 23 23 22 22 22 20 18 18 20 21 21 21 20 21 19 18 18 17 17 16 16 16 16 15 15 15 14 14 12 12 13 13 13 12 11 11 11
27 32 30 28 28 25 22 22 25 25 23 21 20 18 18 20 21 22 22 22 21 20 20 19 19 18 18 17 18 18 17 17 16 16 16 15 15 15 16 15 13 13 13
32 33 29 30 29 26 24 27 26 25 24 22 22 20 19 20 20 21 22 22 21 22 21 21 20 21 19 19 19 20 20 19 18 18 17 18 16 16 17 16 16 14 12
32 32 32 31 29 27 26 26 28 28 25 24 23 20 20 21 21 22 22 21 22 23 23 23 23 23 20 20 21 21 22 21 20 19 19 19 17 15 16 16 15 15 14
31 29 28 27 27 25 23 25 26 25 24 20 22 21 21 23 23 23 23 23 24 25 25 25 25 25 24 22 22 22 23 24 22 20 20 19 19 16 16 17 17 17 13
27 26 26 26 26 24 22 24 23 22 21 22 22 19 18 19 20 22 23 24 26 28 28 29 28 28 26 25 24 24 26 25 23 23 20 19 19 19 18 18 18 17 16
27 27 28 28 27 24 22 24 24 22 21 22 20 20 20 23 24 27 27 28 28 29 29 29 29 28 26 26 25 25 26 25 26 24 20 20 20 20 20 20 19 18 19
27 28 29 30 27 27 24 24 23 23 23 21 19 20 21 24 25 27 27 27 27 28 29 28 28 27 23 23 23 23 24 24 26 25 22 22 22 21 22 21 21 21 21
28 29 31 32 32 29 26 23 22 22 22 23 25 26 28 28 25 24 23 24 25 25 26 27 27 27 26 24 21 22 23 23 25 25 24 23 23 24 24 23 23 23 22
26 28 29 31 31 31 29 25 23 22 22 24 24 24 23 23 21 19 20 20 19 19 20 20 21 22 23 19 18 20 22 23 23 24 27 27 27 27 27 26 24 24 24
25 26 27 29 32 32 31 28 25 24 23 22 19 18 19 19 18 18 17 15 17 16 16 17 18 17 19 18 18 19 20 21 21 26 30 30 29 30 30 30 28 26 26
Wind_Direction
257 254 254 253 255 265 285 303 307 304 302 303 306 305 308 309 309 307 305 303 301 300 299 287 286 294 303 314 319 321 324 323 329 327 318 311 303 298 293 289 291 288 293
255 251 254 250 249 259 280 304 307 302 302 306 311 313 315 316 316 317 314 309 312 324 340 328 304 312 321 332 339 340 334 333 343 337 340 337 343 84 326 300 298 294 305
257 256 249 246 243 259 287 301 304 302 306 311 313 312 315 315 316 317 319 314 322 329 343 330 324 326 331 336 343 346 343 337 341 342 335 335 318 318 319 317 308 312 317
256 253 245 242 250 274 289 302 301 305 310 313 314 316 318 316 318 317 313 317 314 309 306 307 312 320 330 341 341 341 342 334 337 338 346 317 307 311 316 318 316 320 317
266 261 246 252 263 277 293 301 303 310 311 313 314 316 316 315 318 313 325 335 296 287 297 300 300 313 320 330 333 337 342 341 343 342 335 328 322 321 315 314 319 317 318
263 239 237 251 271 287 298 301 305 309 310 313 316 317 313 310 311 313 315 322 303 287 283 287 299 306 311 315 328 340 340 334 341 340 337 331 324 327 323 308 319 316 322
269 241 249 271 288 294 297 297 299 306 307 310 313 314 309 309 311 318 322 318 312 306 295 291 293 296 295 324 323 335 334 323 333 341 338 332 325 320 322 326 318 319 317
263 251 269 280 287 298 308 303 300 300 301 305 309 307 301 300 306 309 315 314 312 316 319 316 309 293 298 301 311 322 323 326 320 325 327 331 329 318 319 320 329 318 316
283 280 276 267 276 313 325 322 319 301 299 300 302 302 297 295 297 301 304 309 310 310 312 318 312 308 297 300 304 313 303 312 311 308 312 323 339 330 320 311 309 316 317
303 293 281 270 282 302 311 315 315 310 294 296 299 299 296 296 297 298 300 301 303 304 303 305 304 309 306 306 305 307 301 289 291 295 288 303 321 327 328 320 305 306 305
323 310 295 284 287 296 301 302 304 308 292 295 298 297 295 292 292 294 297 302 305 305 306 307 314 316 322 316 312 309 306 294 281 281 282 286 294 305 312 314 309 306 299
327 327 309 288 293 305 305 296 300 299 290 294 296 297 293 289 289 290 293 296 303 303 308 311 314 320 323 330 328 325 312 303 294 282 277 281 283 284 286 287 290 285 287
320 311 319 320 314 313 313 308 305 302 294 292 291 292 291 288 287 285 285 289 291 296 301 305 311 312 318 320 323 328 325 311 303 300 297 295 295 291 284 278 277 275 276
334 335 327 323 324 326 326 320 312 307 299 286 281 282 287 285 283 281 282 282 285 289 292 297 303 304 306 308 313 313 317 317 308 304 301 301 301 301 301 298 291 282 276
17 13 4 355 347 339 336 332 331 327 318 305 283 280 282 279 279 281 281 279 281 284 286 290 293 296 299 300 305 306 306 311 312 302 293 294 294 297 298 300 294 292 292
358 347 340 334 329 320 316 316 319 317 317 313 308 290 278 275 277 278 278 277 279 283 284 287 289 291 294 294 297 298 299 303 304 301 297 294 293 296 296 296 287 282 279
341 336 330 325 322 317 310 314 314 313 309 309 305 301 289 279 277 276 276 277 280 280 282 285 286 288 289 291 292 293 293 293 293 295 293 289 292 290 290 288 279 272 274
329 328 324 320 319 313 305 304 304 306 302 302 305 296 292 288 280 276 276 278 281 281 281 282 284 284 286 287 287 288 288 289 290 290 288 286 287 290 283 283 288 283 284
319 318 315 313 310 306 304 302 301 301 296 293 303 299 286 282 280 277 278 279 279 279 280 280 280 282 283 283 283 284 286 287 288 285 284 285 285 285 282 280 282 282 282
322 324 323 319 316 310 303 300 302 303 301 298 298 292 288 281 281 281 280 279 279 280 279 278 279 280 280 279 280 281 282 282 285 282 281 282 284 279 279 277 279 278 282
332 334 332 330 329 326 313 305 302 304 301 295 292 290 290 290 287 283 281 281 280 280 279 278 277 277 278 279 278 277 277 279 280 276 277 279 277 278 277 275 275 279 273
344 344 341 339 338 334 322 309 305 307 302 296 291 289 292 295 292 288 285 282 282 281 280 279 278 277 277 277 275 274 273 275 274 275 274 274 273 274 274 273 274 273 272
346 348 348 345 348 340 332 320 310 306 300 297 294 292 291 302 299 291 288 283 281 282 282 279 280 280 278 276 274 272 270 271 273 275 274 270 270 271 271 272 271 269 267
350 349 347 346 348 348 342 332 321 310 302 295 295 296 297 297 297 294 290 285 284 286 285 281 280 281 279 275 273 270 269 268 268 273 272 272 269 267 270 269 269 270 270
349 351 351 348 345 344 346 340 329 319 307 301 302 301 298 299 300 298 296 293 291 288 287 287 287 288 287 288 277 271 269 269 268 266 265 264 265 266 268 269 268 267 267
342 340 343 346 345 344 342 339 331 322 317 314 312 308 306 306 305 304 301 298 297 294 292 292 290 290 291 292 285 279 276 274 272 268 268 267 265 265 268 269 269 267 266
Height
1537 1539 1540 1541 1541 1542 1542 1541 1539 1537 1536 1533 1531 1529 1527 1524 1521 1517 1514 1511 1508 1506 1504 1503 1503 1502 1501 1500 1498 1495 1494 1492 1488 1485 1482 1480 1480 1480 1481 1480 1479 1479 1477
1532 1535 1536 1537 1539 1540 1539 1538 1537 1535 1534 1531 1529 1526 1523 1520 1516 1512 1510 1508 1506 1504 1502 1501 1501 1501 1500 1498 1496 1494 1491 1490 1487 1484 1480 1477 1476 1476 1477 1477 1476 1474 1473
1529 1531 1533 1534 1536 1537 1537 1536 1535 1533 1531 1529 1526 1524 1521 1518 1514 1511 1508 1506 1504 1503 1502 1501 1501 1500 1498 1497 1495 1493 1490 1487 1486 1485 1484 1480 1477 1474 1473 1473 1472 1471 1469
1526 1528 1530 1532 1534 1536 1535 1534 1533 1531 1528 1526 1524 1521 1518 1515 1511 1509 1507 1505 1504 1502 1502 1501 1500 1498 1497 1496 1494 1491 1489 1486 1484 1482 1482 1482 1479 1476 1469 1469 1468 1468 1467
1525 1526 1528 1531 1533 1533 1533 1532 1530 1528 1526 1524 1521 1518 1515 1512 1509 1506 1504 1504 1503 1502 1501 1500 1499 1497 1496 1494 1492 1490 1488 1485 1484 1482 1479 1478 1477 1475 1473 1466 1465 1463 1464
1526 1527 1529 1530 1531 1531 1530 1529 1527 1526 1523 1521 1518 1516 1513 1510 1508 1505 1503 1502 1501 1501 1500 1498 1497 1496 1494 1493 1490 1488 1486 1485 1483 1481 1479 1478 1476 1473 1471 1465 1463 1461 1460
1526 1527 1528 1529 1529 1528 1527 1526 1524 1523 1520 1518 1515 1513 1511 1509 1506 1504 1501 1500 1500 1498 1497 1496 1495 1493 1492 1490 1488 1486 1484 1483 1481 1479 1478 1477 1474 1472 1470 1467 1463 1460 1459
1527 1527 1528 1527 1527 1526 1524 1522 1520 1518 1517 1514 1512 1511 1509 1506 1504 1502 1500 1498 1497 1496 1494 1493 1492 1491 1489 1487 1485 1484 1482 1480 1479 1478 1477 1475 1472 1470 1468 1466 1464 1461 1459
1527 1527 1526 1526 1524 1523 1522 1520 1517 1515 1513 1511 1510 1508 1506 1504 1502 1500 1499 1497 1495 1494 1492 1491 1489 1487 1486 1484 1482 1480 1479 1478 1477 1476 1474 1472 1470 1468 1466 1464 1464 1463 1460
1526 1525 1524 1523 1522 1520 1518 1516 1514 1511 1509 1508 1506 1505 1502 1501 1499 1497 1496 1495 1493 1491 1490 1488 1486 1484 1482 1480 1478 1477 1475 1475 1474 1473 1472 1470 1469 1466 1464 1463 1461 1461 1461
1524 1522 1521 1519 1518 1516 1514 1512 1510 1507 1505 1504 1502 1501 1499 1498 1497 1495 1493 1492 1491 1489 1486 1485 1483 1482 1479 1477 1475 1473 1472 1471 1471 1470 1469 1468 1466 1465 1463 1461 1460 1458 1457
1521 1518 1516 1514 1513 1511 1508 1506 1504 1502 1502 1500 1498 1497 1496 1494 1493 1492 1490 1490 1488 1486 1484 1483 1481 1479 1477 1475 1473 1471 1469 1468 1467 1467 1466 1464 1463 1462 1461 1459 1458 1457 1456
1518 1515 1513 1511 1509 1507 1503 1501 1500 1498 1497 1495 1494 1493 1492 1490 1489 1488 1487 1486 1486 1484 1482 1480 1478 1477 1475 1473 1471 1469 1467 1465 1464 1463 1462 1461 1460 1458 1457 1456 1455 1454 1453
1513 1511 1509 1508 1506 1503 1500 1498 1496 1494 1491 1489 1488 1487 1487 1486 1485 1484 1483 1482 1481 1480 1478 1476 1475 1474 1472 1471 1469 1467 1465 1463 1461 1461 1460 1459 1457 1456 1454 1452 1451 1449 1449
1513 1511 1509 1507 1504 1502 1499 1496 1493 1490 1486 1484 1482 1481 1481 1480 1479 1479 1478 1478 1477 1476 1474 1472 1471 1470 1469 1467 1466 1464 1463 1460 1458 1457 1457 1456 1454 1452 1451 1449 1447 1446 1445
1514 1511 1508 1504 1501 1498 1495 1492 1489 1486 1483 1480 1478 1476 1475 1474 1474 1474 1473 1473 1472 1471 1469 1468 1466 1465 1465 1463 1462 1460 1459 1457 1456 1454 1453 1452 1451 1449 1448 1446 1445 1444 1442
1511 1507 1504 1500 1496 1493 1490 1487 1484 1481 1478 1475 1473 1471 1470 1468 1468 1468 1467 1467 1466 1465 1464 1463 1462 1461 1460 1459 1457 1456 1454 1453 1452 1450 1449 1448 1447 1446 1444 1442 1441 1441 1440
1507 1503 1499 1494 1491 1487 1484 1481 1478 1475 1472 1470 1468 1466 1464 1463 1463 1462 1462 1461 1461 1459 1458 1457 1456 1455 1454 1453 1452 1451 1449 1448 1447 1445 1444 1443 1442 1441 1440 1439 1437 1436 1435
1503 1498 1494 1489 1484 1481 1478 1474 1471 1469 1466 1465 1463 1461 1459 1457 1457 1456 1456 1455 1453 1453 1452 1451 1450 1449 1449 1448 1447 1445 1444 1442 1441 1440 1439 1438 1437 1437 1435 1434 1433 1432 1432
1497 1491 1487 1483 1478 1474 1471 1467 1464 1462 1460 1459 1456 1455 1453 1452 1451 1450 1449 1449 1447 1446 1445 1444 1443 1442 1441 1441 1440 1439 1437 1435 1435 1435 1433 1432 1432 1431 1430 1429 1428 1427 1427
1491 1487 1482 1478 1473 1469 1464 1460 1458 1456 1454 1452 1450 1449 1448 1446 1445 1444 1443 1442 1440 1438 1437 1436 1436 1435 1434 1434 1433 1432 1429 1428 1428 1427 1427 1426 1425 1425 1424 1424 1423 1423 1423
1486 1482 1477 1472 1468 1464 1460 1456 1453 1451 1448 1446 1444 1444 1443 1441 1440 1437 1436 1434 1432 1430 1429 1427 1426 1427 1427 1425 1425 1424 1422 1421 1420 1420 1421 1420 1419 1419 1418 1418 1418 1417 1417
1484 1479 1474 1469 1465 1460 1456 1451 1448 1446 1443 1441 1440 1438 1436 1435 1432 1429 1427 1426 1424 1422 1420 1419 1418 1417 1418 1417 1416 1416 1415 1415 1413 1413 1414 1413 1413 1413 1412 1412 1411 1411 1410
1480 1476 1471 1465 1461 1457 1453 1448 1444 1441 1438 1436 1434 1433 1430 1427 1425 1422 1420 1417 1416 1415 1413 1412 1411 1410 1409 1409 1409 1408 1406 1406 1406 1406 1406 1406 1406 1406 1405 1405 1405 1405 1405
1479 1475 1470 1465 1459 1454 1450 1446 1441 1436 1433 1431 1428 1426 1423 1421 1419 1417 1415 1412 1410 1408 1406 1406 1405 1404 1402 1403 1402 1400 1399 1398 1398 1397 1396 1396 1396 1397 1397 1397 1397 1397 1397
1478 1474 1470 1464 1458 1452 1447 1443 1438 1434 1429 1426 1424 1421 1419 1417 1414 1412 1410 1409 1406 1405 1403 1401 1399 1398 1397 1396 1395 1394 1393 1392 1392 1389 1387 1387 1388 1388 1389 1389 1389 1389 1389